Location: �terpigny
(49.8910°N, 2.9249°E)
Time: 23:25:39
(UTC+00:00)

BEESAT 2 - Visible Passes

Search period start: 27 June 2022 00:00
Search period end: 07 July 2022 00:00
Orbit: 485 x 508 km, 64.9° (Epoch: 27 June)

Date Brightness Start Highest point End Pass type
(mag) Time Alt. Az. Time Alt. Az. Time Alt. Az.
27 Jun ? 21:41:51 10° WSW 21:42:11 10° WSW 21:42:30 10° WSW visible
28 Jun ? 21:19:06 10° W 21:20:23 11° WSW 21:21:39 10° SW visible
29 Jun ? 20:56:47 10° W 20:58:34 13° WSW 21:00:19 10° SW visible
